www.pogodaiklimat.ru

Погода и климат >> Архив погоды >> Россия >> Якутия >> Покровск


ПОГОДА в Покровске

  • Прогноз погоды в Покровске
  • Монитор погоды в Покровске
  • Климат города

АРХИВ ПОГОДЫ в Покровске

Время (UTC), дата Ветер
(напр.,м/с)
 
Видим.   Явления Облачность Т
(С)
Тd
(С)
f
(%)
Тe
(С)
Тes
(С)
Комфортность P
(гПа)
Po
(гПа)
Тmin
(С)
Tmax
(С)
R
(мм)
R24
(мм)
S
(см)
06 12.12 штиль 0 4000 м слабый снег {туман} 10/0
[Cs]
-37.7 -39.9 80 -38 -38 опасность
обморожения
1028.3 1010.4
09 12.12 штиль 0 20 км слабый снег 10/0
[Cs]
-37.6 -39.9 79 -38 -38 опасность
обморожения
1028.6 1010.7
12 12.12 ЮЗ 1 20 км слабый снег 10/0
[Cs]
-38.7 -40.8 80 -44 -44 опасность
обморожения
1028.9 1011.0 -37.6 0.3
15 12.12 З 1 4000 м дымка {снег} ясно -40.6 -42.7 80 -46 -46 опасность
обморожения
1028.2 1010.2
18 12.12 штиль 0 10 км слабый снег 10/0
[Cs]
-35.0 -37.4 79 -35 -35 опасность
обморожения
1027.9 1010.2
21 12.12 СВ 1 10 км слабый снег 10/0
[Cs]
-34.7 -37.1 79 -39 -39 опасность
обморожения
1027.4 1009.8
00 13.12 СВ 1 10 км слабый снег 10/0
[As op]
-33.4 -35.6 80 -38 -38 опасность
обморожения
1027.0 1009.4 -41.0 0.4 20
03 13.12 СВ 1 10 км слабый снег 10/0
[As op]
-32.1 -34.4 80 -36 -36 опасность
обморожения
1026.1 1008.7
06 13.12 СВ 1 10 км слабый снег 10/0
[As op]
-31.5 -33.9 79 -36 -36 опасность
обморожения
1024.9 1007.5
09 13.12 СВ 1 10 км слабый снег 10/0
[As op]
-31.9 -34.4 78 -36 -36 опасность
обморожения
1024.0 1006.7
12 13.12 С 2 10 км слабый снег 10/0
[As op]
-32.9 -35.1 81 -41 -41 опасность
обморожения
1022.9 1005.6 -31.3 0.4
15 13.12 СВ 1 10 км слабый снег 10/0
[As op]
-35.1 -37.4 79 -40 -40 опасность
обморожения
1021.4 1003.8
18 13.12 СВ 2 10 км слабый снег 10/0
[As op]
-34.8 -37.1 79 -43 -43 опасность
обморожения
1019.5 1002.1
21 13.12 СВ 2 10 км слабый снег 10/0
[As op]
-35.2 -37.4 80 -44 -44 опасность
обморожения
1017.4 999.9
00 14.12 С 2 10 км слабый снег 10/0
[As op]
-31.7 -34.1 79 -39 -39 опасность
обморожения
1015.0 997.8 -35.6 0.3 21
03 14.12 СВ 3 10 км слабый снег 10/0
[As op]
-29.9 -32.4 79 -39 -39 опасность
обморожения
1012.4 995.4
06 14.12 СВ 4 10 км слабый снег 10/0
[As op]
-29.2 -31.6 80 -40 -40 опасность
обморожения
1011.4 994.4
09 14.12 СВ 2 10 км слабый снег 10/0
[As op]
-28.4 -30.8 80 -36 -36 опасность
обморожения
1011.6 994.7
12 14.12 ЮВ 1 10 км слабый снег 10/0
[As op]
-30.8 -33.2 79 -35 -35 опасность
обморожения
1012.2 995.1 -28.2 1
15 14.12 С 2 20 км {снег} 10/0
[Ac trans]
-30.9 -33.2 80 -39 -39 опасность
обморожения
1012.1 995.1
18 14.12 СВ 2 20 км {снег} 10/0
[Ac trans]
-32.3 -34.6 80 -40 -40 опасность
обморожения
1012.4 995.2
21 14.12 СВ 2 20 км 10/0
[Ac trans]
-31.1 -33.4 80 -39 -39 опасность
обморожения
1011.6 994.5
00 15.12 СВ 2 50 км 10/0
[Ac trans]
-30.7 -33.0 80 -38 -38 опасность
обморожения
1011.2 994.2 -32.3 0.2 21
03 15.12 СВ 2 50 км 6/0
[Ac trans]
-31.1 -33.4 80 -39 -39 опасность
обморожения
1010.3 993.1
06 15.12 С 2 10 км слабый снег 10/0
[As op]
-30.0 -32.4 79 -37 -37 опасность
обморожения
1009.8 992.3
09 15.12 СВ 1 10 км слабый снег 10/0
[As op]
-29.5 -32.0 79 -34 -34 опасность
обморожения
1008.7 991.8
12 15.12 штиль 0 50 км слабый снег ?/? -29.0 -31.4 80 -29 -29 1008.0 991.1 -29.0 0.6
15 15.12 З 1 10 км слабый снег 10/0
[As op]
-29.3 -29.3 100 -33 -33 опасность
обморожения
1007.1 990.2
18 15.12 ЮЗ 1 10 км слабый снег 10/0
[As op]
-27.3 -29.8 79 -31 -31 опасность
обморожения
1006.7 989.9
21 15.12 ЮЗ 2 10 км слабый снег 10/0
[As op]
-27.5 -30.0 79 -35 -35 опасность
обморожения
1006.5 989.7
00 16.12 З 1 50 км {снег} 10/0
[Ac trans Ci fib]
-31.2 -33.0 84 -35 -35 опасность
обморожения
1007.1 990.0 -31.2 0.4 23
03 16.12 З 1 50 км 10/0
[Ci fib]
-32.4 -34.8 79 -37 -37 опасность
обморожения
1006.6 989.5
06 16.12 З 1 50 км 10/0
[Ci fib]
-31.3 -33.6 80 -36 -36 опасность
обморожения
1005.9 988.8
09 16.12 З 1 20 км 10/0
[Ci fib]
-31.0 -33.4 79 -35 -35 опасность
обморожения
1005.3 988.2
12 16.12 штиль 0 10 км слабый снег 10/0
[As op]
-28.3 -30.7 80 -28 -28 1004.7 987.9 -28.3 0.0
15 16.12 штиль 0 20 км в посл. час снег 10/0
[As op Cs]
-27.2 -29.6 80 -27 -27 1004.0 987.3
18 16.12 З 3 20 км {снег} 10/0
[Cs]
-27.7 -30.1 80 -37 -37 опасность
обморожения
1004.6 987.8
21 16.12 ЮЗ 2 10 км слабый снег 10/0
[Cs]
-29.3 -32.0 77 -37 -37 опасность
обморожения
1005.6 988.7
00 17.12 З 2 10 км слабый снег 10/0
[Ac trans Cs]
-27.3 -29.2 84 -34 -34 опасность
обморожения
1007.6 990.8 -29.3 0.3 23
03 17.12 ЮЗ 1 50 км {снег} 10/0
[Ci fib]
-29.2 -30.9 85 -33 -33 опасность
обморожения
1009.6 992.6 -32.9
06 17.12 ЮЗ 1 50 км {снег} 3/0
[Ci fib]
-29.7 -31.5 84 -34 -34 опасность
обморожения
1010.0 993.0
09 17.12 ЮЗ 2 20 км ясно -36.2 -38.4 80 -45 -45 опасность
обморожения
1010.7 993.3
12 17.12 З 2 10 км дымка ясно -39.0 -41.2 79 -48 -48 опасность
обморожения
1010.8 993.1 -26.4 0.0
15 17.12 ЮЗ 2 4000 м дымка ясно -41.5 -43.8 78 -51 -51 опасность
обморожения
1009.5 991.7
18 17.12 З 1 4000 м дымка ясно -42.1 -44.4 78 -48 -48 опасность
обморожения
1008.7 990.9
21 17.12 З 1 4000 м дымка ясно -43.0 -45.6 75 -49 -49 опасность
обморожения
1008.0 990.0
00 18.12 С 1 500 м туман ясно -43.5 -45.7 79 -49 -49 опасность
обморожения
1007.7 989.7 -43.5 23
03 18.12 С 3 4000 м в посл. час туман ясно -36.4 -38.8 78 -47 -47 опасность
обморожения
1006.3 988.9
06 18.12 СВ 2 50 км 3/0
[Ci fib]
-36.1 -38.4 79 -45 -45 опасность
обморожения
1006.3 988.9
09 18.12 С 2 10 км дымка 4/0
[Ci fib]
-40.9 -43.2 78 -50 -50 опасность
обморожения
1008.0 990.3
12 18.12 З 2 10 км дымка ясно -43.4 -45.7 78 -53 -53 опасность
обморожения
1009.9 991.9 -36.1
15 18.12 З 1 4000 м дымка ясно -43.7 -45.7 80 -49 -49 опасность
обморожения
1011.3 993.2
18 18.12 ЮЗ 2 4000 м дымка ясно -44.5 -46.4 81 -54 -54 опасность
обморожения
1012.3 994.2
21 18.12 ЮЗ 1 4000 м дымка ясно -45.0 -47.2 78 -51 -51 опасность
обморожения
1013.1 994.9
00 19.12 ЮЗ 2 500 м туман ясно -44.9 -47.2 78 -55 -55 опасность
обморожения
1013.6 995.5 -45.5 23

 

Местоположение метеостанции Покровск (Якутия, Россия): широта 61.48 долгота 129.10 высота над уровнем моря 121 м.

В архиве по умолчанию представлена погода в Покровске за последнюю неделю. Архивные данные за месяц целиком и за предыдущие месяцы, начиная с января 2011 года, Вы можете получить, выбрав интересующий диапазон дат из раскрывающегося списка и нажав кнопку "Ввод!".


*Определитесь, кто Вы:
робот инопланетянин человек

Внимание! Время в таблицах - всемирное. Для получения местного времени необходимо прибавить поправку, которая в Покровске равна 9 ч.

Смотрите также архив погоды в соседних городах и на ближайших метеорологических станциях:

Погода в Якутске (Якутия, Россия) (64 км)
Погода в Тегюльте (Якутия, Россия) (122 км)
Погода в Намцах (Якутия, Россия) (140 км)
Погода в Бердигестяхе (Якутия, Россия) (141 км)
Погода в Амге (Якутия, Россия) (163 км)
Погода в Чурапче (Якутия, Россия) (194 км)
Погода в Исите (Якутия, Россия) (217 км)
Погода в Батамае (Якутия, Россия) (227 км)
Погода в Буяге (Якутия, Россия) (232 км)
Погода в Тонгулахе (Якутия, Россия) (247 км)

Пояснения к столбцам:

Ветер - указаны скорость ветра в м/с - средняя за 10 мин, порывы в срок и между сроками (в фигурных скобках) и направление, откуда дует ветер: С - северный, СВ - северо-восточный, В - восточный, ЮВ - юго-восточный, Ю - южный, ЮЗ - юго-западный, З - западный, СЗ - северо-западный.
Видимость - горизонтальная дальность видимости в метрах или километрах. При видимости от 1 до 10 км при отсутствии осадков обычно наблюдается дымка, при ухудшении видимости до 1 км и менее - туман. В сухую погоду видимость может ухудшаться дымом, пылью или мглою.
Явления - указаны атмосферные явления, наблюдавшиеся в срок или в последний час перед сроком; фигурными скобками обозначены явления, наблюдавшиеся между сроками (за 1-3 часа до срока); квадратными скобками обозначены град или гололедные отложения с указанием их диаметра в мм.
Облачность - указаны через наклонную черту общая и нижняя облачность в баллах и высота нижней границы облаков в метрах; квадратными скобками обозначены формы облаков: Ci - перистые, Cs - перисто-слоистые, Cc - перисто-кучевые, Ac - высококучевые, As - высокослоистые, Sc - слоисто-кучевые, Ns - слоисто-дождевые, Cu - кучевые, Cb - кучево-дождевые. Подробнее классификацию облаков см. в Атласе облаков (PDF).
T - Температура воздуха - температура, измеренная на высоте 2 м над землей.
Td - Температура точки росы - температура, при понижении до которой содержащийся в воздухе водяной пар достигнет насыщения.
f - Относительная влажность воздуха - влажноcть воздуха, измеренная на высоте 2 м над землей.
Te - Эффективная температура - температура, которую ощущает одетый по сезону человек в тени. Характеристика душности погоды. При расчете учитывается влияние влажности воздуха и скорости ветра на теплоощущения человека.
Tes - Эффективная температура на солнце - температура, которую ощущает человек, с поправкой на солнечный нагрев. Характеристика знойности погоды. Зависит от высоты солнца над горизонтом, облачности и скорости ветра. Ночью, в пасмурную погоду, а также при ветре 12 м/с и более поправка равна нулю.
P - Атмосферное давление - приведенное к уровню моря атмосферное давление.
Po - Атмосферное давление - измеренное на уровне метеостанции атмосферное давление.
Tmin - Минимальная температура - минимум температуры воздуха на высоте 2 м над землей.
Tmax - Максимальная температура - максимум температуры воздуха на высоте 2 м над землей.
R - Количество осадков - Количество выпавших осадков за период времени, мм. При наведении курсора мыши на число - период времени, за который выпало указанное количество осадков.
R24 - Количество осадков - Количество выпавших осадков за 24 часа, мм.
S - Снежный покров - Высота снежного покрова, см. При наведении курсора мыши на число - состояние снежного покрова и степень покрытия местности в баллах.